{"data":{"norad_id":53494,"epoch":"2026-05-25T01:23:13.208064Z","epoch_age_seconds":63317,"freshness":"FRESH","line1":"1 53494U 22099AF  26145.05779176  .00001587  00000+0  11401-3 0  9997","line2":"2 53494  97.4462 266.1611 0003203 124.6651 235.4878 15.05647622207548","mean_motion":15.05647622,"eccentricity":0.0003203,"inclination_deg":97.4462,"raan_deg":266.1611,"arg_perigee_deg":124.6651,"mean_anomaly_deg":235.4878,"bstar":0.00011401,"rev_number":20754,"period_min":95.639907967789,"perigee_km":547.29952028785,"apogee_km":551.73737636805,"semimajor_km":6927.655448328,"source":"CELESTRAK","updated_at":"2026-05-25T13:38:17.435797Z"}}